Location: Gradaro
(45.0833°N, 10.8833°E)
Time: 06:29:31
(UTC+00:00)

Meteor PRIRODA - Pass Details

Date: 29 November 2020
Orbit: 489 x 510 km, 97.6° (Epoch: 27 January)

Event Time Altitude Azimuth Distance (km) Brightness Sun altitude
Rises 04:30:03 0° 15° (NNE) 2,633 7.4 -21.1°
Reaches altitude 10° 04:32:10 10° 18° (NNE) 1,742 6.4 -20.7°
Maximum altitude 04:35:55 67° 102° (ESE) 560 4.0 -20.0°
Drops below altitude 10° 04:39:37 10° 185° (S) 1,726 6.4 -19.4°
Sets 04:41:42 0° 188° (S) 2,606 7.3 -19.0°
